Location: Innsbruck
(47.2657°N, 11.3914°E)
Time: 09:45:34
(UTC+01:00)

BEESAT 3 - Pass Details

Date: 13 December 2021
Orbit: 472 x 512 km, 64.9° (Epoch: 22 January)

Event Time Altitude Azimuth Distance (km) Brightness Sun altitude
Rises 17:42:51 0° 230° (SW) 2,553 ? -12.6°
Reaches altitude 10° 17:45:01 10° 235° (SW) 1,683 ? -13.0°
Maximum altitude 17:48:40 49° 312° (NW) 646 ? -13.6°
Enters shadow 17:51:40 15° 25° (NNE) 1,429 ? -14.0°
